Ireland West Airport Knock, Ireland

12:11 AM IST on May 01, 2017 (GMT +0100)
Connaught

Weather History for EIKN - July, 2013

Change the Weather History Date:

Tuesday, July 30, 2013

  Actual Average Record
Temperature  
Mean Temperature 56 °F -  
Max Temperature 62 °F - - ()
Min Temperature 50 °F - - ()
Degree Days  
Heating Degree Days 9    
Growing Degree Days 6 (Base 50)    
Moisture  
Dew Point 52 °F    
Average Humidity 82    
Maximum Humidity 100    
Minimum Humidity 63    
Precipitation  
Precipitation 0.16 in - - ()
Sea Level Pressure  
Sea Level Pressure 29.78 in    
Wind  
Wind Speed 9 mph ()    
Max Wind Speed 20 mph    
Max Gust Speed -    
Visibility 5.7 miles    
Events Rain    
T = Trace of Precipitation, MM = Missing Value Source: Averaged Metar Reports

Daily Weather History Graph

Daily Weather History Graph

Search for Another Location

Airport or City:

Trip Planner

Search our weather history database for the weather conditions in past years. The results will help you decide how hot, cold, wet, or windy it might be!

Date:

Astronomy

Jul. 30, 2013 Rise Set
Actual Time 5:45 AM IST 9:36 PM IST
Civil Twilight 5:00 AM IST 10:20 PM IST
Nautical Twilight 3:57 AM IST 11:23 PM IST
Astronomical Twilight 2:14 AM IST 1:09 AM IST
Moon 12:06 AM IST 3:38 PM IST
Length of Visible Light 17h 19m
Length of Day
15h 50m
Last Quarter, 43% of the Moon is Illuminated
Jul 30
Last Quarter
Aug 6
New
Aug 14
First Quarter
Aug 21
Full
Aug 28
Last Quarter

Hourly Weather History & Observations

Time (IST) Temp. Dew Point Humidity Pressure Visibility Wind Dir Wind Speed Gust Speed Precip Events Conditions
1:00 AM 52 °F 51 °F 94% 29.82 in - South 6.7 mph - -  
6:00 AM 51.8 °F 50.0 °F 94% 29.77 in 3.1 mi South 5.8 mph - N/A   Mostly Cloudy
7:00 AM 53 °F 52 °F 95% 29.78 in 4 mi South 6.7 mph - - Rain Light Rain Showers
7:00 AM 53.6 °F 51.8 °F 94% 29.77 in 3.7 mi South 5.8 mph - N/A Rain Light Rain Showers
7:30 AM 53.6 °F 51.8 °F 94% 29.77 in 6.2 mi South 8.1 mph - N/A   Mostly Cloudy
8:00 AM 53.6 °F 53.6 °F 100% 29.74 in 6.2 mi South 8.1 mph - N/A   Mostly Cloudy
8:30 AM 53.6 °F 53.6 °F 100% 29.74 in 5.0 mi SSE 9.2 mph - N/A Rain Light Rain Showers
9:00 AM 55.4 °F 53.6 °F 94% 29.74 in 6.2 mi South 8.1 mph - N/A   Mostly Cloudy
9:30 AM 55.4 °F 53.6 °F 94% 29.77 in 6.2 mi South 9.2 mph - N/A   Mostly Cloudy
10:00 AM 57.2 °F 53.6 °F 88% 29.77 in 6.2 mi South 11.5 mph - N/A   Mostly Cloudy
10:30 AM 59.0 °F 53.6 °F 82% 29.77 in 6.2 mi SSW 12.7 mph - N/A   Scattered Clouds
11:00 AM 59.0 °F 55.4 °F 88% 29.77 in 6.2 mi South 11.5 mph - N/A   Mostly Cloudy
11:30 AM 59.0 °F 53.6 °F 82% 29.77 in 3.1 mi SSW 9.2 mph - N/A Rain Light Rain Showers
12:00 PM 55.4 °F 53.6 °F 94% 29.77 in 6.2 mi SW 13.8 mph - N/A   Mostly Cloudy
12:30 PM 60.8 °F 53.6 °F 77% 29.77 in 6.2 mi SW 11.5 mph - N/A   Scattered Clouds
1:00 PM 61 °F 52 °F 63% 29.77 in 31 mi SW 13.4 mph - -   Partly Cloudy
1:00 PM 60.8 °F 51.8 °F 72% 29.77 in 6.2 mi SW 13.8 mph - N/A   Mostly Cloudy
1:30 PM 60.8 °F 50.0 °F 68% 29.77 in 6.2 mi WSW 13.8 mph - N/A   Mostly Cloudy
2:00 PM 60.8 °F 51.8 °F 72% 29.77 in 6.2 mi WSW 15.0 mph - N/A Rain Light Rain Showers
2:30 PM 60.8 °F 55.4 °F 82% 29.77 in 6.2 mi WSW 12.7 mph - N/A   Mostly Cloudy
3:00 PM 62.6 °F 51.8 °F 68% 29.77 in 6.2 mi WSW 17.3 mph - N/A   Mostly Cloudy
3:30 PM 60.8 °F 53.6 °F 77% 29.77 in 6.2 mi WSW 10.4 mph - N/A   Mostly Cloudy
4:00 PM 60.8 °F 53.6 °F 77% 29.80 in 6.2 mi West 13.8 mph - N/A   Mostly Cloudy
4:30 PM 62.6 °F 51.8 °F 68% 29.80 in 6.2 mi WSW 16.1 mph - N/A   Mostly Cloudy
5:00 PM 62.6 °F 50.0 °F 63% 29.80 in 6.2 mi WSW 18.4 mph - N/A   Mostly Cloudy
5:30 PM 60.8 °F 50.0 °F 68% 29.80 in 6.2 mi West 19.6 mph - N/A   Mostly Cloudy
6:00 PM 60.8 °F 50.0 °F 68% 29.80 in 6.2 mi WSW 16.1 mph - N/A   Mostly Cloudy
7:00 PM 59.0 °F 50.0 °F 72% 29.83 in 6.2 mi WSW 12.7 mph - N/A   Mostly Cloudy